• In Netherlands
  • List of Countries
  • For 7 days
  • Water Temperature
  • Satellite Maps
  • Weather Map
  • Weather Widgets
  • user-avatar
    Login

    Hourly Weather Mingachevir

    Today, 24 September, Sunday

    Time Temperature Precipitation Wind Pressure Humidity
    00:00 +25°C° 0.1 mm 3 mps 754 mmHg 60%
    01:00 +24°C° 0 mm 3 mps 754 mmHg 62%
    02:00 +23°C° 0 mm 2 mps 754 mmHg 64%
    03:00 +23°C° 0 mm 2 mps 754 mmHg 66%
    04:00 +23°C° 0 mm 1 mps 754 mmHg 68%
    05:00 +23°C° 0 mm 1 mps 754 mmHg 69%
    06:00 +22°C° 0 mm 1 mps 755 mmHg 70%
    07:00 +24°C° 0 mm 1 mps 755 mmHg 63%
    08:00 +26°C° 0 mm 2 mps 755 mmHg 57%
    09:00 +28°C° 0 mm 3 mps 755 mmHg 49%
    10:00 +29°C° 0 mm 3 mps 755 mmHg 45%
    11:00 +30°C° 0 mm 3 mps 755 mmHg 42%
    12:00 +30°C° 0 mm 3 mps 755 mmHg 38%
    13:00 +32°C° 0 mm 4 mps 755 mmHg 37%
    14:00 +32°C° 0 mm 4 mps 754 mmHg 36%
    15:00 +33°C° 0 mm 4 mps 754 mmHg 35%
    16:00 +30°C° 0 mm 4 mps 754 mmHg 39%
    17:00 +29°C° 0 mm 4 mps 755 mmHg 43%
    18:00 +28°C° 0 mm 4 mps 755 mmHg 47%
    19:00 +27°C° 0 mm 4 mps 755 mmHg 51%
    20:00 +26°C° 0 mm 4 mps 756 mmHg 56%
    21:00 +25°C° 0 mm 4 mps 756 mmHg 60%
    22:00 +24°C° 0 mm 3 mps 756 mmHg 64%
    23:00 +24°C° 0 mm 3 mps 756 mmHg 68%

    Tomorrow, 25 September, Monday

    Time Temperature Precipitation Wind Pressure Humidity
    00:00 +23°C° 0 mm 2 mps 756 mmHg 72%
    01:00 +21°C° 0 mm 2 mps 756 mmHg 74%
    02:00 +22°C° 0 mm 1 mps 756 mmHg 77%
    03:00 +21°C° 0 mm 1 mps 756 mmHg 80%
    04:00 +21°C° 0 mm 1 mps 756 mmHg 80%
    05:00 +21°C° 0 mm 1 mps 756 mmHg 81%
    06:00 +19°C° 0 mm 0 mps 756 mmHg 82%
    07:00 +22°C° 0 mm 1 mps 756 mmHg 73%
    08:00 +24°C° 0 mm 1 mps 756 mmHg 65%
    09:00 +26°C° 0 mm 1 mps 756 mmHg 56%
    10:00 +27°C° 0 mm 2 mps 756 mmHg 51%
    11:00 +28°C° 0 mm 2 mps 755 mmHg 46%
    12:00 +30°C° 0 mm 2 mps 755 mmHg 41%
    13:00 +30°C° 0 mm 3 mps 755 mmHg 39%
    14:00 +31°C° 0 mm 3 mps 755 mmHg 37%
    15:00 +31°C° 0 mm 3 mps 755 mmHg 35%
    16:00 +30°C° 0 mm 3 mps 755 mmHg 38%
    17:00 +29°C° 0 mm 3 mps 755 mmHg 41%
    18:00 +28°C° 0 mm 3 mps 755 mmHg 43%
    19:00 +27°C° 0 mm 4 mps 755 mmHg 45%
    20:00 +26°C° 0 mm 5 mps 755 mmHg 47%
    21:00 +26°C° 0 mm 6 mps 756 mmHg 49%
    22:00 +25°C° 0 mm 5 mps 756 mmHg 50%
    23:00 +23°C° 0 mm 5 mps 756 mmHg 51%

    Day after tomorrow, 26 September, Tuesday

    Time Temperature Precipitation Wind Pressure Humidity
    00:00 +23°C° 0 mm 4 mps 756 mmHg 52%
    01:00 +22°C° 0 mm 3 mps 755 mmHg 54%
    02:00 +21°C° 0 mm 3 mps 755 mmHg 56%
    03:00 +21°C° 0 mm 2 mps 755 mmHg 58%
    04:00 +20°C° 0 mm 2 mps 755 mmHg 60%
    05:00 +20°C° 0 mm 2 mps 755 mmHg 62%
    06:00 +20°C° 0 mm 1 mps 755 mmHg 64%
    07:00 +21°C° 0 mm 2 mps 755 mmHg 60%
    08:00 +22°C° 0 mm 3 mps 755 mmHg 55%
    09:00 +25°C° 0 mm 3 mps 755 mmHg 51%
    10:00 +26°C° 0 mm 3 mps 754 mmHg 49%
    11:00 +27°C° 0 mm 4 mps 754 mmHg 46%
    12:00 +28°C° 0 mm 4 mps 754 mmHg 44%
    13:00 +28°C° 0 mm 4 mps 753 mmHg 44%
    14:00 +28°C° 0 mm 4 mps 753 mmHg 44%
    15:00 +28°C° 0 mm 4 mps 753 mmHg 44%
    16:00 +27°C° 0 mm 5 mps 753 mmHg 48%
    17:00 +26°C° 0 mm 5 mps 753 mmHg 52%
    18:00 +25°C° 0 mm 5 mps 753 mmHg 55%
    19:00 +23°C° 0 mm 5 mps 754 mmHg 59%
    20:00 +23°C° 0 mm 6 mps 754 mmHg 62%
    21:00 +22°C° 0 mm 6 mps 755 mmHg 65%
    22:00 +21°C° 0 mm 6 mps 754 mmHg 65%
    23:00 +21°C° 0 mm 5 mps 754 mmHg 65%

    27 September, Wednesday

    Time Temperature Precipitation Wind Pressure Humidity
    00:00 +21°C° 0 mm 4 mps 754 mmHg 65%
    01:00 +20°C° 0.1 mm 4 mps 754 mmHg 66%
    02:00 +20°C° 0.1 mm 4 mps 754 mmHg 68%
    03:00 +20°C° 0.1 mm 3 mps 754 mmHg 69%
    04:00 +20°C° 0.1 mm 3 mps 754 mmHg 70%
    05:00 +19°C° 0.1 mm 3 mps 754 mmHg 72%
    06:00 +19°C° 0.1 mm 2 mps 754 mmHg 73%
    07:00 +19°C° 0.1 mm 2 mps 754 mmHg 72%
    08:00 +20°C° 0.1 mm 3 mps 754 mmHg 71%
    09:00 +20°C° 0.1 mm 3 mps 754 mmHg 70%
    10:00 +20°C° 0 mm 3 mps 754 mmHg 68%
    11:00 +21°C° 0 mm 3 mps 754 mmHg 67%
    12:00 +21°C° 0 mm 3 mps 754 mmHg 66%
    13:00 +21°C° 0 mm 3 mps 753 mmHg 67%
    14:00 +21°C° 0 mm 3 mps 753 mmHg 68%
    15:00 +21°C° 0 mm 3 mps 753 mmHg 69%
    16:00 +20°C° 0 mm 3 mps 753 mmHg 71%
    17:00 +20°C° 0 mm 3 mps 754 mmHg 73%
    18:00 +19°C° 0 mm 3 mps 754 mmHg 76%
    19:00 +19°C° 0.8 mm 3 mps 754 mmHg 78%
    20:00 +19°C° 0.8 mm 3 mps 754 mmHg 81%
    21:00 +18°C° 0.8 mm 3 mps 755 mmHg 84%
    22:00 +18°C° 1.7 mm 3 mps 755 mmHg 85%
    23:00 +18°C° 1.7 mm 3 mps 755 mmHg 87%

    28 September, Thursday

    Time Temperature Precipitation Wind Pressure Humidity
    00:00 +18°C° 1.7 mm 3 mps 755 mmHg 89%
    01:00 +17°C° 0.5 mm 3 mps 755 mmHg 89%
    02:00 +17°C° 0.5 mm 3 mps 755 mmHg 89%
    03:00 +17°C° 0.5 mm 3 mps 755 mmHg 89%
    04:00 +17°C° 0.5 mm 3 mps 755 mmHg 89%
    05:00 +17°C° 0.5 mm 4 mps 755 mmHg 88%
    06:00 +17°C° 0.5 mm 4 mps 755 mmHg 88%
    07:00 +17°C° 1.4 mm 4 mps 756 mmHg 88%
    08:00 +17°C° 1.4 mm 4 mps 756 mmHg 88%
    09:00 +17°C° 1.4 mm 4 mps 756 mmHg 87%
    10:00 +17°C° 0.6 mm 4 mps 756 mmHg 86%
    11:00 +17°C° 0.6 mm 4 mps 756 mmHg 85%
    12:00 +17°C° 0.6 mm 4 mps 756 mmHg 84%
    13:00 +17°C° 0.1 mm 4 mps 756 mmHg 82%
    14:00 +18°C° 0.1 mm 4 mps 756 mmHg 80%
    15:00 +18°C° 0.1 mm 4 mps 756 mmHg 79%
    16:00 +18°C° 0 mm 3 mps 757 mmHg 79%
    17:00 +17°C° 0 mm 3 mps 757 mmHg 80%
    18:00 +17°C° 0 mm 3 mps 757 mmHg 81%
    19:00 +17°C° 0.1 mm 3 mps 758 mmHg 82%
    20:00 +17°C° 0.1 mm 3 mps 758 mmHg 82%
    21:00 +17°C° 0.1 mm 2 mps 758 mmHg 82%
    22:00 +17°C° 0.1 mm 2 mps 758 mmHg 83%
    23:00 +16°C° 0.1 mm 2 mps 758 mmHg 83%

    29 September, Friday

    Time Temperature Precipitation Wind Pressure Humidity
    00:00 +16°C° 0.1 mm 2 mps 758 mmHg 84%
    01:00 +16°C° 0.3 mm 2 mps 758 mmHg 85%
    02:00 +16°C° 0.3 mm 2 mps 758 mmHg 85%
    03:00 +16°C° 0.3 mm 2 mps 758 mmHg 86%
    04:00 +16°C° 0.2 mm 2 mps 758 mmHg 86%
    05:00 +16°C° 0.2 mm 2 mps 758 mmHg 86%
    06:00 +16°C° 0.2 mm 2 mps 758 mmHg 86%
    07:00 +16°C° 0.1 mm 2 mps 758 mmHg 83%
    08:00 +17°C° 0.1 mm 2 mps 758 mmHg 80%
    09:00 +17°C° 0.1 mm 2 mps 758 mmHg 77%
    10:00 +18°C° 0 mm 3 mps 758 mmHg 74%
    11:00 +19°C° 0 mm 3 mps 757 mmHg 70%
    12:00 +20°C° 0 mm 3 mps 757 mmHg 66%
    13:00 +20°C° 0 mm 3 mps 757 mmHg 64%
    14:00 +20°C° 0 mm 3 mps 756 mmHg 63%
    15:00 +21°C° 0 mm 3 mps 756 mmHg 61%
    16:00 +20°C° 0 mm 3 mps 756 mmHg 64%
    17:00 +20°C° 0 mm 3 mps 756 mmHg 67%
    18:00 +19°C° 0 mm 2 mps 756 mmHg 70%
    19:00 +19°C° 0 mm 2 mps 756 mmHg 71%
    20:00 +19°C° 0 mm 2 mps 756 mmHg 71%
    21:00 +18°C° 0 mm 2 mps 756 mmHg 72%
    22:00 +18°C° 0.1 mm 2 mps 756 mmHg 72%
    23:00 +18°C° 0.1 mm 2 mps 755 mmHg 73%
    Show more